Time,TemperatureF,DewpointF,PressureIn,WindDirection,WindDirectionDegrees,WindSpeedMPH,WindSpeedGustMPH,Humidity,HourlyPrecipIn,Conditions,Clouds,dailyrainin,SolarRadiationWatts/m^2,SoftwareType,DateUTC
2013-06-21 00:04:00,44.0,40.4,29.98,WNW,294,2.0,4.0,87,0.00,,,0.00,0,Wunderground v.1.15,2013-06-21 06:04:00,
2013-06-21 00:10:00,44.0,40.4,29.98,WNW,294,1.0,1.0,87,0.00,,,0.00,0,Wunderground v.1.15,2013-06-21 06:10:00,
2013-06-21 00:16:00,43.8,39.9,29.97,WNW,294,0.0,1.0,86,0.00,,,0.00,0,Wunderground v.1.15,2013-06-21 06:16:00,
2013-06-21 00:22:00,43.6,39.7,29.98,WNW,294,0.0,0.0,86,0.00,,,0.00,0,Wunderground v.1.15,2013-06-21 06:22:00,
2013-06-21 00:28:00,43.5,39.6,29.98,WNW,294,0.0,0.0,86,0.00,,,0.00,0,Wunderground v.1.15,2013-06-21 06:28:00,
2013-06-21 00:34:00,43.4,39.5,29.98,WNW,294,0.0,0.0,86,0.00,,,0.00,0,Wunderground v.1.15,2013-06-21 06:34:00,
2013-06-21 00:40:00,43.2,39.3,29.98,WNW,294,0.0,0.0,86,0.00,,,0.00,0,Wunderground v.1.15,2013-06-21 06:40:00,
2013-06-21 00:46:00,42.9,38.7,29.98,WNW,294,0.0,0.0,85,0.00,,,0.00,0,Wunderground v.1.15,2013-06-21 06:46:00,
2013-06-21 00:52:00,42.5,38.6,29.98,WNW,294,0.0,0.0,86,0.00,,,0.00,0,Wunderground v.1.15,2013-06-21 06:52:00,
2013-06-21 00:58:00,42.4,40.2,29.98,WNW,294,0.0,3.0,92,0.00,,,0.00,0,Wunderground v.1.15,2013-06-21 06:58:00,
2013-06-21 01:04:00,42.4,39.1,29.98,WNW,294,0.0,0.0,88,0.00,,,0.00,0,Wunderground v.1.15,2013-06-21 07:04:00,
2013-06-21 01:10:00,42.2,38.9,29.98,NW,317,0.0,0.0,88,0.00,,,0.00,0,Wunderground v.1.15,2013-06-21 07:10:00,
2013-06-21 01:16:00,42.1,39.1,29.97,North,351,1.0,2.0,89,0.00,,,0.00,0,Wunderground v.1.15,2013-06-21 07:16:00,
2013-06-21 01:22:00,42.0,39.0,29.97,North,351,1.0,1.0,89,0.00,,,0.00,0,Wunderground v.1.15,2013-06-21 07:22:00,
2013-06-21 01:28:00,42.0,39.3,29.97,North,351,0.0,1.0,90,0.00,,,0.00,0,Wunderground v.1.15,2013-06-21 07:28:00,
2013-06-21 01:34:00,42.0,39.3,29.97,North,351,0.0,2.0,90,0.00,,,0.00,0,Wunderground v.1.15,2013-06-21 07:34:00,
2013-06-21 01:42:00,42.0,39.3,29.97,North,351,0.0,0.0,90,0.00,,,0.00,0,Wunderground v.1.15,2013-06-21 07:42:00,
2013-06-21 01:48:00,42.0,39.3,29.97,North,351,0.0,0.0,90,0.00,,,0.01,0,Wunderground v.1.15,2013-06-21 07:48:00,
2013-06-21 01:54:00,42.0,39.3,29.97,North,351,0.0,0.0,90,0.00,,,0.01,0,Wunderground v.1.15,2013-06-21 07:54:00,
2013-06-21 02:00:00,41.9,39.2,29.97,North,351,0.0,0.0,90,0.00,,,0.01,0,Wunderground v.1.15,2013-06-21 08:00:00,
2013-06-21 02:06:00,41.7,38.7,29.97,North,351,0.0,0.0,89,0.00,,,0.01,0,Wunderground v.1.15,2013-06-21 08:06:00,
2013-06-21 02:12:00,41.4,38.4,29.97,North,351,0.0,0.0,89,0.00,,,0.01,0,Wunderground v.1.15,2013-06-21 08:12:00,
2013-06-21 02:18:00,41.1,38.1,29.97,North,355,0.0,4.0,89,0.00,,,0.01,0,Wunderground v.1.15,2013-06-21 08:18:00,
2013-06-21 02:24:00,40.9,38.2,29.97,North,355,1.0,2.0,90,0.00,,,0.01,0,Wunderground v.1.15,2013-06-21 08:24:00,
2013-06-21 02:30:00,40.7,37.7,29.97,North,355,0.0,0.0,89,0.00,,,0.01,0,Wunderground v.1.15,2013-06-21 08:30:00,
2013-06-21 02:36:00,40.5,37.5,29.97,North,355,0.0,0.0,89,0.00,,,0.01,0,Wunderground v.1.15,2013-06-21 08:36:00,
2013-06-21 02:42:00,40.4,37.4,29.96,North,355,0.0,0.0,89,0.00,,,0.01,0,Wunderground v.1.15,2013-06-21 08:42:00,
2013-06-21 02:48:00,40.3,37.3,29.96,North,355,0.0,0.0,89,0.00,,,0.01,0,Wunderground v.1.15,2013-06-21 08:48:00,
2013-06-21 02:54:00,40.1,37.1,29.96,North,355,0.0,0.0,89,0.00,,,0.01,0,Wunderground v.1.15,2013-06-21 08:54:00,
2013-06-21 03:00:00,40.0,37.0,29.96,North,355,0.0,0.0,89,0.00,,,0.01,0,Wunderground v.1.15,2013-06-21 09:00:00,
2013-06-21 03:06:00,39.9,37.2,29.96,North,355,0.0,0.0,90,0.00,,,0.01,0,Wunderground v.1.15,2013-06-21 09:06:00,
2013-06-21 03:12:00,39.8,37.1,29.96,North,355,0.0,0.0,90,0.00,,,0.01,0,Wunderground v.1.15,2013-06-21 09:12:00,
2013-06-21 03:18:00,39.7,37.0,29.96,North,355,0.0,0.0,90,0.00,,,0.01,0,Wunderground v.1.15,2013-06-21 09:18:00,
2013-06-21 03:24:00,39.5,36.5,29.96,North,355,1.0,3.0,89,0.00,,,0.01,0,Wunderground v.1.15,2013-06-21 09:24:00,
2013-06-21 03:30:00,39.1,36.1,29.96,NNE,15,2.0,2.0,89,0.00,,,0.01,0,Wunderground v.1.15,2013-06-21 09:30:00,
2013-06-21 03:36:00,38.8,35.8,29.96,NNE,15,1.0,2.0,89,0.00,,,0.01,0,Wunderground v.1.15,2013-06-21 09:36:00,
2013-06-21 03:44:00,38.5,35.5,29.96,NNE,15,0.0,0.0,89,0.00,,,0.01,0,Wunderground v.1.15,2013-06-21 09:44:00,
2013-06-21 03:52:00,38.3,35.6,29.96,NE,42,1.0,3.0,90,0.00,,,0.01,0,Wunderground v.1.15,2013-06-21 09:52:00,
2013-06-21 03:58:00,38.2,35.5,29.95,NE,42,3.0,3.0,90,0.00,,,0.01,0,Wunderground v.1.15,2013-06-21 09:58:00,
2013-06-21 04:04:00,38.0,35.3,29.95,NE,42,1.0,2.0,90,0.00,,,0.01,0,Wunderground v.1.15,2013-06-21 10:04:00,
2013-06-21 04:10:00,37.9,35.2,29.96,NE,42,0.0,0.0,90,0.00,,,0.01,0,Wunderground v.1.15,2013-06-21 10:10:00,
2013-06-21 04:16:00,37.8,35.1,29.96,NE,42,0.0,0.0,90,0.00,,,0.01,0,Wunderground v.1.15,2013-06-21 10:16:00,
2013-06-21 04:22:00,37.7,35.0,29.96,NE,42,0.0,0.0,90,0.00,,,0.01,0,Wunderground v.1.15,2013-06-21 10:22:00,
2013-06-21 04:28:00,37.7,35.3,29.96,NE,42,0.0,0.0,91,0.00,,,0.01,0,Wunderground v.1.15,2013-06-21 10:28:00,
2013-06-21 04:34:00,37.7,35.3,29.97,NE,42,0.0,0.0,91,0.00,,,0.01,0,Wunderground v.1.15,2013-06-21 10:34:00,
2013-06-21 04:40:00,37.6,35.2,29.97,NE,42,0.0,0.0,91,0.00,,,0.01,0,Wunderground v.1.15,2013-06-21 10:40:00,
2013-06-21 04:46:00,37.4,34.7,29.97,NE,42,0.0,0.0,90,0.00,,,0.01,0,Wunderground v.1.15,2013-06-21 10:46:00,
2013-06-21 04:52:00,37.1,34.2,29.97,NE,42,0.0,0.0,89,0.00,,,0.01,0,Wunderground v.1.15,2013-06-21 10:52:00,
2013-06-21 04:58:00,36.7,33.8,29.97,NE,42,0.0,0.0,89,0.00,,,0.01,0,Wunderground v.1.15,2013-06-21 10:58:00,
2013-06-21 05:04:00,36.4,33.7,29.98,NE,42,0.0,0.0,90,0.00,,,0.01,0,Wunderground v.1.15,2013-06-21 11:04:00,
2013-06-21 05:10:00,36.2,33.5,29.98,NE,42,0.0,0.0,90,0.00,,,0.01,0,Wunderground v.1.15,2013-06-21 11:10:00,
2013-06-21 05:16:00,36.0,33.4,29.98,NE,43,0.0,2.0,90,0.00,,,0.01,0,Wunderground v.1.15,2013-06-21 11:16:00,
2013-06-21 05:22:00,35.9,33.3,29.98,NE,43,1.0,1.0,90,0.00,,,0.01,0,Wunderground v.1.15,2013-06-21 11:22:00,
2013-06-21 05:28:00,35.7,33.1,29.98,NE,43,0.0,1.0,90,0.00,,,0.01,0,Wunderground v.1.15,2013-06-21 11:28:00,
2013-06-21 05:34:00,35.6,33.2,29.98,NE,43,0.0,0.0,91,0.00,,,0.01,0,Wunderground v.1.15,2013-06-21 11:34:00,
2013-06-21 05:40:00,35.5,33.1,29.98,NE,43,0.0,0.0,91,0.00,,,0.01,0,Wunderground v.1.15,2013-06-21 11:40:00,
2013-06-21 05:46:00,35.5,33.1,29.99,NE,43,0.0,0.0,91,0.00,,,0.01,5,Wunderground v.1.15,2013-06-21 11:46:00,
2013-06-21 05:52:00,35.5,33.1,29.98,NE,43,0.0,0.0,91,0.00,,,0.01,7,Wunderground v.1.15,2013-06-21 11:52:00,
2013-06-21 05:58:00,35.4,33.0,29.99,NE,43,0.0,0.0,91,0.00,,,0.01,11,Wunderground v.1.15,2013-06-21 11:58:00,
2013-06-21 06:04:00,35.3,32.9,29.99,NE,43,0.0,0.0,91,0.00,,,0.01,11,Wunderground v.1.15,2013-06-21 12:04:00,
2013-06-21 06:10:00,35.3,32.9,29.99,NE,43,0.0,0.0,91,0.00,,,0.01,12,Wunderground v.1.15,2013-06-21 12:10:00,
2013-06-21 06:16:00,35.2,32.8,29.99,NE,43,0.0,0.0,91,0.00,,,0.01,14,Wunderground v.1.15,2013-06-21 12:16:00,
2013-06-21 06:22:00,35.2,32.8,29.99,NE,43,0.0,0.0,91,0.00,,,0.01,19,Wunderground v.1.15,2013-06-21 12:22:00,
2013-06-21 06:28:00,35.2,32.8,29.98,NE,43,0.0,0.0,91,0.00,,,0.01,25,Wunderground v.1.15,2013-06-21 12:28:00,
2013-06-21 06:34:00,35.2,33.1,29.98,NE,43,0.0,0.0,92,0.00,,,0.01,35,Wunderground v.1.15,2013-06-21 12:34:00,
2013-06-21 06:40:00,35.2,33.1,29.98,NE,43,0.0,0.0,92,0.00,,,0.01,37,Wunderground v.1.15,2013-06-21 12:40:00,
2013-06-21 06:46:00,35.3,33.2,29.99,NE,43,0.0,0.0,92,0.00,,,0.01,39,Wunderground v.1.15,2013-06-21 12:46:00,
2013-06-21 06:52:00,35.4,33.3,30.00,NE,43,0.0,0.0,92,0.00,,,0.01,40,Wunderground v.1.15,2013-06-21 12:52:00,
2013-06-21 06:58:00,35.6,33.8,30.00,NE,43,0.0,0.0,93,0.00,,,0.01,47,Wunderground v.1.15,2013-06-21 12:58:00,
2013-06-21 07:04:00,35.8,34.0,30.00,NE,43,0.0,0.0,93,0.00,,,0.01,93,Wunderground v.1.15,2013-06-21 13:04:00,
2013-06-21 07:10:00,36.2,34.6,30.00,NE,43,0.0,0.0,94,0.00,,,0.01,105,Wunderground v.1.15,2013-06-21 13:10:00,
2013-06-21 07:16:00,36.9,35.3,30.00,NE,43,0.0,0.0,94,0.00,,,0.01,76,Wunderground v.1.15,2013-06-21 13:16:00,
2013-06-21 07:22:00,37.7,36.4,30.00,NE,43,0.0,0.0,95,0.00,,,0.01,54,Wunderground v.1.15,2013-06-21 13:22:00,
2013-06-21 07:28:00,38.7,37.4,30.00,NE,43,0.0,0.0,95,0.00,,,0.01,56,Wunderground v.1.15,2013-06-21 13:28:00,
2013-06-21 07:34:00,39.5,38.2,30.00,NE,43,0.0,0.0,95,0.00,,,0.01,56,Wunderground v.1.15,2013-06-21 13:34:00,
2013-06-21 07:40:00,40.3,39.0,30.00,NE,43,0.0,0.0,95,0.00,,,0.01,65,Wunderground v.1.15,2013-06-21 13:40:00,
2013-06-21 07:46:00,41.0,39.7,30.00,NE,43,0.0,0.0,95,0.00,,,0.01,60,Wunderground v.1.15,2013-06-21 13:46:00,
2013-06-21 07:52:00,41.5,40.2,30.00,NE,43,0.0,0.0,95,0.00,,,0.01,60,Wunderground v.1.15,2013-06-21 13:52:00,
2013-06-21 07:58:00,41.7,40.1,30.01,NE,43,0.0,0.0,94,0.00,,,0.01,58,Wunderground v.1.15,2013-06-21 13:58:00,
2013-06-21 08:06:00,41.9,40.0,30.01,NE,43,0.0,0.0,93,0.00,,,0.01,54,Wunderground v.1.15,2013-06-21 14:06:00,
2013-06-21 08:12:00,42.0,40.1,30.01,NE,43,0.0,0.0,93,0.00,,,0.01,53,Wunderground v.1.15,2013-06-21 14:12:00,
2013-06-21 08:18:00,42.1,40.2,30.01,NE,43,0.0,0.0,93,0.00,,,0.01,49,Wunderground v.1.15,2013-06-21 14:18:00,
2013-06-21 08:24:00,42.4,40.5,30.01,NE,43,0.0,0.0,93,0.00,,,0.01,51,Wunderground v.1.15,2013-06-21 14:24:00,
2013-06-21 08:30:00,42.8,41.2,30.01,NE,43,0.0,0.0,94,0.00,,,0.01,63,Wunderground v.1.15,2013-06-21 14:30:00,
2013-06-21 08:36:00,43.4,41.8,30.01,NE,43,0.0,0.0,94,0.00,,,0.01,91,Wunderground v.1.15,2013-06-21 14:36:00,
2013-06-21 08:42:00,44.1,42.5,30.01,NE,43,0.0,0.0,94,0.00,,,0.02,153,Wunderground v.1.15,2013-06-21 14:42:00,
2013-06-21 08:48:00,44.7,42.8,30.01,NE,43,0.0,0.0,93,0.00,,,0.02,253,Wunderground v.1.15,2013-06-21 14:48:00,
2013-06-21 08:54:00,45.4,43.5,30.01,NE,43,0.0,0.0,93,0.00,,,0.02,376,Wunderground v.1.15,2013-06-21 14:54:00,
2013-06-21 09:00:00,46.1,43.6,30.01,NE,43,0.0,0.0,91,0.00,,,0.02,455,Wunderground v.1.15,2013-06-21 15:00:00,
2013-06-21 09:06:00,46.9,44.1,30.00,NE,43,0.0,0.0,90,0.00,,,0.02,489,Wunderground v.1.15,2013-06-21 15:06:00,
2013-06-21 09:12:00,47.6,44.2,30.00,NE,43,0.0,2.0,88,0.00,,,0.02,519,Wunderground v.1.15,2013-06-21 15:12:00,
2013-06-21 09:18:00,48.2,43.6,30.00,NE,43,0.0,2.0,84,0.00,,,0.02,548,Wunderground v.1.15,2013-06-21 15:18:00,
2013-06-21 09:24:00,48.9,43.3,30.00,NE,43,0.0,0.0,81,0.00,,,0.02,575,Wunderground v.1.15,2013-06-21 15:24:00,
2013-06-21 09:32:00,49.7,44.1,30.00,NW,320,1.0,3.0,81,0.00,,,0.02,599,Wunderground v.1.15,2013-06-21 15:32:00,
2013-06-21 09:38:00,50.3,44.4,30.00,WNW,300,2.0,3.0,80,0.00,,,0.02,617,Wunderground v.1.15,2013-06-21 15:38:00,
2013-06-21 09:44:00,50.9,44.9,29.99,WNW,300,2.0,5.0,80,0.00,,,0.02,633,Wunderground v.1.15,2013-06-21 15:44:00,
2013-06-21 09:50:00,51.4,44.4,29.99,WNW,303,2.0,3.0,77,0.00,,,0.02,654,Wunderground v.1.15,2013-06-21 15:50:00,
2013-06-21 09:56:00,51.9,43.9,29.99,WNW,301,3.0,5.0,74,0.00,,,0.02,671,Wunderground v.1.15,2013-06-21 15:56:00,
2013-06-21 10:02:00,52.3,44.6,29.99,WNW,298,3.0,9.0,75,0.00,,,0.02,686,Wunderground v.1.15,2013-06-21 16:02:00,
2013-06-21 10:08:00,52.9,45.9,29.98,NW,321,3.0,9.0,77,0.00,,,0.02,701,Wunderground v.1.15,2013-06-21 16:08:00,
2013-06-21 10:14:00,53.3,45.2,29.98,NW,319,3.0,6.0,74,0.00,,,0.02,717,Wunderground v.1.15,2013-06-21 16:14:00,
2013-06-21 10:24:00,54.0,43.3,29.98,WNW,303,4.0,8.0,67,0.00,,,0.02,742,Wunderground v.1.15,2013-06-21 16:24:00,
2013-06-21 10:34:00,54.6,44.2,29.98,NNW,340,5.0,5.0,68,0.00,,,0.02,768,Wunderground v.1.15,2013-06-21 16:34:00,
2013-06-21 10:40:00,54.9,44.5,29.98,NNW,331,5.0,9.0,68,0.00,,,0.02,786,Wunderground v.1.15,2013-06-21 16:40:00,
2013-06-21 10:46:00,55.0,43.8,29.97,WNW,300,5.0,9.0,66,0.00,,,0.02,798,Wunderground v.1.15,2013-06-21 16:46:00,
2013-06-21 10:52:00,55.4,43.0,29.97,NW,316,5.0,6.0,63,0.00,,,0.02,812,Wunderground v.1.15,2013-06-21 16:52:00,
2013-06-21 10:58:00,55.7,44.1,29.97,NW,305,5.0,7.0,65,0.00,,,0.02,830,Wunderground v.1.15,2013-06-21 16:58:00,
2013-06-21 11:04:00,56.0,44.0,29.97,NW,321,5.0,6.0,64,0.00,,,0.02,853,Wunderground v.1.15,2013-06-21 17:04:00,
2013-06-21 11:14:00,56.6,45.4,29.97,NW,326,5.0,7.0,66,0.00,,,0.02,944,Wunderground v.1.15,2013-06-21 17:14:00,
2013-06-21 11:20:00,56.9,44.4,29.97,WNW,302,5.0,8.0,63,0.00,,,0.02,510,Wunderground v.1.15,2013-06-21 17:20:00,
2013-06-21 11:26:00,57.2,45.5,29.97,WNW,299,5.0,8.0,65,0.00,,,0.02,953,Wunderground v.1.15,2013-06-21 17:26:00,
2013-06-21 11:32:00,57.7,43.5,29.97,NW,311,6.0,6.0,59,0.00,,,0.02,1002,Wunderground v.1.15,2013-06-21 17:32:00,
2013-06-21 11:38:00,58.0,44.2,29.96,NW,308,6.0,7.0,60,0.00,,,0.02,962,Wunderground v.1.15,2013-06-21 17:38:00,
2013-06-21 11:44:00,58.4,45.4,29.95,WNW,303,6.0,6.0,62,0.00,,,0.02,1056,Wunderground v.1.15,2013-06-21 17:44:00,
2013-06-21 11:46:00,58.6,43.4,29.96,WNW,289,6.0,6.0,57,0.00,,,0.02,1056,Wunderground v.1.15,2013-06-21 17:46:00,
2013-06-21 11:48:00,58.8,44.5,29.95,NNW,336,6.0,6.0,59,0.00,,,0.02,1056,Wunderground v.1.15,2013-06-21 17:48:00,
2013-06-21 11:52:00,59.1,45.2,29.95,WNW,296,6.0,6.0,60,0.00,,,0.02,1148,Wunderground v.1.15,2013-06-21 17:52:00,
2013-06-21 11:54:00,59.4,45.1,29.95,NW,311,6.0,6.0,59,0.00,,,0.02,1102,Wunderground v.1.15,2013-06-21 17:54:00,
2013-06-21 11:58:00,60.0,45.2,29.95,NW,315,6.0,6.0,58,0.00,,,0.02,1092,Wunderground v.1.15,2013-06-21 17:58:00,
2013-06-21 12:04:00,60.7,43.9,29.95,NW,325,6.0,7.0,54,0.00,,,0.02,1041,Wunderground v.1.15,2013-06-21 18:04:00,
2013-06-21 12:10:00,61.1,43.8,29.94,NW,306,6.0,6.0,53,0.00,,,0.02,1051,Wunderground v.1.15,2013-06-21 18:10:00,
2013-06-21 12:18:00,61.6,42.8,29.94,NNW,338,6.0,9.0,50,0.00,,,0.02,1041,Wunderground v.1.15,2013-06-21 18:18:00,
2013-06-21 12:24:00,61.5,43.2,29.94,NW,307,6.0,6.0,51,0.00,,,0.02,1004,Wunderground v.1.15,2013-06-21 18:24:00,
2013-06-21 12:26:00,61.6,44.3,29.94,NNW,331,5.0,6.0,53,0.00,,,0.02,1002,Wunderground v.1.15,2013-06-21 18:26:00,
2013-06-21 12:30:00,62.0,44.2,29.94,NNW,330,5.0,9.0,52,0.00,,,0.02,1009,Wunderground v.1.15,2013-06-21 18:30:00,
2013-06-21 12:34:00,62.3,45.4,29.94,NW,324,5.0,10.0,54,0.00,,,0.02,1018,Wunderground v.1.15,2013-06-21 18:34:00,
2013-06-21 12:36:00,62.4,45.0,29.94,NNW,327,5.0,10.0,53,0.00,,,0.02,1023,Wunderground v.1.15,2013-06-21 18:36:00,
2013-06-21 12:42:00,62.7,43.8,29.94,WNW,292,4.0,4.0,50,0.00,,,0.02,1023,Wunderground v.1.15,2013-06-21 18:42:00,
2013-06-21 12:46:00,62.9,42.9,29.94,NW,317,3.0,5.0,48,0.00,,,0.02,840,Wunderground v.1.15,2013-06-21 18:46:00,
2013-06-21 12:48:00,63.0,44.1,29.93,NW,317,2.0,5.0,50,0.00,,,0.02,770,Wunderground v.1.15,2013-06-21 18:48:00,
2013-06-21 12:50:00,63.2,43.2,29.94,NW,306,3.0,3.0,48,0.00,,,0.02,1025,Wunderground v.1.15,2013-06-21 18:50:00,
2013-06-21 12:54:00,63.6,42.4,29.93,NNW,348,3.0,4.0,46,0.00,,,0.02,617,Wunderground v.1.15,2013-06-21 18:54:00,
2013-06-21 13:00:00,63.8,42.0,29.94,NNW,333,4.0,4.0,45,0.00,,,0.02,1076,Wunderground v.1.15,2013-06-21 19:00:00,
2013-06-21 13:06:00,63.9,43.3,29.93,North,355,5.0,9.0,47,0.00,,,0.02,1009,Wunderground v.1.15,2013-06-21 19:06:00,
2013-06-21 13:12:00,63.7,42.5,29.93,NNW,332,6.0,6.0,46,0.00,,,0.02,1011,Wunderground v.1.15,2013-06-21 19:12:00,
2013-06-21 13:20:00,63.5,42.3,29.94,North,350,5.0,5.0,46,0.00,,,0.02,515,Wunderground v.1.15,2013-06-21 19:20:00,
2013-06-21 13:26:00,63.7,46.7,29.94,NNW,335,5.0,5.0,54,0.00,,,0.02,1364,Wunderground v.1.15,2013-06-21 19:26:00,
2013-06-21 13:32:00,63.5,42.9,29.94,NW,309,5.0,7.0,47,0.00,,,0.02,336,Wunderground v.1.15,2013-06-21 19:32:00,
2013-06-21 13:38:00,63.1,42.0,29.94,NW,318,9.0,11.0,46,0.00,,,0.02,301,Wunderground v.1.15,2013-06-21 19:38:00,
2013-06-21 13:44:00,61.9,42.5,29.94,WNW,286,9.0,10.0,49,0.00,,,0.02,306,Wunderground v.1.15,2013-06-21 19:44:00,
2013-06-21 13:50:00,61.1,42.3,29.94,West,273,7.0,11.0,50,0.00,,,0.02,394,Wunderground v.1.15,2013-06-21 19:50:00,
2013-06-21 13:56:00,60.5,42.8,29.94,West,277,7.0,11.0,52,0.00,,,0.02,427,Wunderground v.1.15,2013-06-21 19:56:00,
2013-06-21 14:02:00,60.2,42.5,29.93,NW,313,7.0,7.0,52,0.00,,,0.02,497,Wunderground v.1.15,2013-06-21 20:02:00,
2013-06-21 14:08:00,60.0,40.8,29.93,WSW,249,6.0,9.0,49,0.00,,,0.03,255,Wunderground v.1.15,2013-06-21 20:08:00,
2013-06-21 14:14:00,59.8,41.6,29.93,NW,309,4.0,6.0,51,0.00,,,0.03,313,Wunderground v.1.15,2013-06-21 20:14:00,
2013-06-21 14:20:00,59.7,41.0,29.93,SW,229,2.0,2.0,50,0.00,,,0.03,501,Wunderground v.1.15,2013-06-21 20:20:00,
2013-06-21 14:26:00,60.0,43.3,29.93,South,176,2.0,5.0,54,0.00,,,0.03,1227,Wunderground v.1.15,2013-06-21 20:26:00,
2013-06-21 14:32:00,61.3,44.0,29.93,South,178,3.0,7.0,53,0.00,,,0.03,601,Wunderground v.1.15,2013-06-21 20:32:00,
2013-06-21 14:40:00,62.9,41.8,29.93,SE,128,2.0,2.0,46,0.00,,,0.03,895,Wunderground v.1.15,2013-06-21 20:40:00,
2013-06-21 14:48:00,64.2,42.4,29.92,NE,35,0.0,3.0,45,0.00,,,0.03,1049,Wunderground v.1.15,2013-06-21 20:48:00,
2013-06-21 14:54:00,64.9,43.0,29.93,NW,304,1.0,1.0,45,0.00,,,0.03,1013,Wunderground v.1.15,2013-06-21 20:54:00,
2013-06-21 15:00:00,65.4,40.4,29.92,NNE,22,1.0,3.0,40,0.00,,,0.03,1039,Wunderground v.1.15,2013-06-21 21:00:00,
2013-06-21 15:06:00,64.7,38.5,29.93,ENE,61,3.0,4.0,38,0.00,,,0.03,146,Wunderground v.1.15,2013-06-21 21:06:00,
2013-06-21 15:10:00,63.9,39.1,29.93,ENE,69,4.0,4.0,40,0.00,,,0.03,163,Wunderground v.1.15,2013-06-21 21:10:00,
2013-06-21 15:18:00,62.1,38.1,29.92,WNW,297,1.0,5.0,41,0.00,,,0.03,262,Wunderground v.1.15,2013-06-21 21:18:00,
2013-06-21 15:24:00,61.9,40.3,29.92,NW,306,2.0,4.0,45,0.00,,,0.03,1158,Wunderground v.1.15,2013-06-21 21:24:00,
2013-06-21 15:30:00,62.4,40.8,29.92,NNE,26,2.0,4.0,45,0.00,,,0.03,1220,Wunderground v.1.15,2013-06-21 21:30:00,
2013-06-21 15:36:00,63.3,41.6,29.92,North,5,3.0,4.0,45,0.00,,,0.03,1218,Wunderground v.1.15,2013-06-21 21:36:00,
2013-06-21 15:42:00,64.2,43.5,29.91,NNE,28,3.0,5.0,47,0.00,,,0.03,1216,Wunderground v.1.15,2013-06-21 21:42:00,
2013-06-21 15:48:00,64.4,42.0,29.92,North,360,4.0,5.0,44,0.00,,,0.03,404,Wunderground v.1.15,2013-06-21 21:48:00,
2013-06-21 15:54:00,63.8,42.0,29.91,NNW,339,4.0,6.0,45,0.00,,,0.03,232,Wunderground v.1.15,2013-06-21 21:54:00,
2013-06-21 16:00:00,62.7,41.6,29.91,North,9,4.0,5.0,46,0.00,,,0.03,243,Wunderground v.1.15,2013-06-21 22:00:00,
2013-06-21 16:06:00,61.6,40.6,29.92,NE,51,4.0,5.0,46,0.00,,,0.03,264,Wunderground v.1.15,2013-06-21 22:06:00,
2013-06-21 16:12:00,61.1,40.1,29.92,ENE,59,2.0,5.0,46,0.00,,,0.03,171,Wunderground v.1.15,2013-06-21 22:12:00,
2013-06-21 16:18:00,60.5,40.2,29.93,NE,48,2.0,5.0,47,0.00,,,0.03,123,Wunderground v.1.15,2013-06-21 22:18:00,
2013-06-21 16:24:00,59.9,40.1,29.93,ESE,121,3.0,6.0,48,0.00,,,0.03,127,Wunderground v.1.15,2013-06-21 22:24:00,
2013-06-21 16:30:00,59.2,40.0,29.93,ESE,105,7.0,12.0,49,0.00,,,0.03,95,Wunderground v.1.15,2013-06-21 22:30:00,
2013-06-21 16:36:00,57.6,40.6,29.93,SE,135,13.0,14.0,53,0.00,,,0.03,76,Wunderground v.1.15,2013-06-21 22:36:00,
2013-06-21 16:42:00,56.5,39.6,29.93,SE,130,12.0,13.0,53,0.00,,,0.03,83,Wunderground v.1.15,2013-06-21 22:42:00,
2013-06-21 16:48:00,55.8,40.3,29.94,ESE,119,11.0,13.0,56,0.00,,,0.03,97,Wunderground v.1.15,2013-06-21 22:48:00,
2013-06-21 16:54:00,55.4,40.0,29.94,ESE,115,10.0,11.0,56,0.00,,,0.03,120,Wunderground v.1.15,2013-06-21 22:54:00,
2013-06-21 17:00:00,55.3,40.8,29.94,ESE,110,8.0,8.0,58,0.00,,,0.03,251,Wunderground v.1.15,2013-06-21 23:00:00,
2013-06-21 17:10:00,56.0,42.7,29.94,East,84,6.0,6.0,61,0.00,,,0.03,367,Wunderground v.1.15,2013-06-21 23:10:00,
2013-06-21 17:16:00,56.2,41.6,29.94,ENE,65,5.0,6.0,58,0.00,,,0.03,492,Wunderground v.1.15,2013-06-21 23:16:00,
2013-06-21 17:22:00,56.7,41.6,29.93,ENE,75,5.0,5.0,57,0.00,,,0.03,309,Wunderground v.1.15,2013-06-21 23:22:00,
2013-06-21 17:28:00,57.0,41.9,29.94,East,86,5.0,6.0,57,0.00,,,0.03,272,Wunderground v.1.15,2013-06-21 23:28:00,
2013-06-21 17:34:00,57.1,41.1,29.94,WSW,250,5.0,10.0,55,0.00,,,0.03,246,Wunderground v.1.15,2013-06-21 23:34:00,
2013-06-21 17:40:00,57.2,41.2,29.94,SW,221,6.0,8.0,55,0.00,,,0.03,225,Wunderground v.1.15,2013-06-21 23:40:00,
2013-06-21 17:46:00,57.2,41.6,29.94,SW,236,5.0,8.0,56,0.00,,,0.03,237,Wunderground v.1.15,2013-06-21 23:46:00,
2013-06-21 17:52:00,57.2,40.7,29.94,WSW,241,6.0,7.0,54,0.00,,,0.03,761,Wunderground v.1.15,2013-06-21 23:52:00,
2013-06-21 17:58:00,57.8,43.1,29.94,West,273,8.0,13.0,58,0.00,,,0.03,654,Wunderground v.1.15,2013-06-21 23:58:00,
2013-06-21 18:04:00,58.6,42.5,29.94,WNW,297,10.0,12.0,55,0.00,,,0.03,645,Wunderground v.1.15,2013-06-22 00:04:00,
2013-06-21 18:10:00,59.2,43.5,29.95,WNW,284,11.0,11.0,56,0.00,,,0.03,176,Wunderground v.1.15,2013-06-22 00:10:00,
2013-06-21 18:16:00,58.7,42.6,29.95,NW,313,9.0,11.0,55,0.00,,,0.03,185,Wunderground v.1.15,2013-06-22 00:16:00,
2013-06-21 18:22:00,58.3,43.6,29.95,NW,310,7.0,14.0,58,0.00,,,0.03,555,Wunderground v.1.15,2013-06-22 00:22:00,
2013-06-21 18:28:00,58.0,43.7,29.96,West,281,9.0,14.0,59,0.00,,,0.03,132,Wunderground v.1.15,2013-06-22 00:28:00,
2013-06-21 18:34:00,57.2,43.4,29.96,WNW,292,10.0,11.0,60,0.00,,,0.03,139,Wunderground v.1.15,2013-06-22 00:34:00,
2013-06-21 18:40:00,56.0,43.2,29.96,NW,317,11.0,11.0,62,0.00,,,0.03,125,Wunderground v.1.15,2013-06-22 00:40:00,
2013-06-21 18:46:00,55.1,42.7,29.97,NW,312,10.0,11.0,63,0.00,,,0.03,118,Wunderground v.1.15,2013-06-22 00:46:00,
2013-06-21 18:52:00,54.4,42.9,29.97,WNW,288,10.0,15.0,65,0.00,,,0.03,98,Wunderground v.1.15,2013-06-22 00:52:00,
2013-06-21 18:58:00,53.8,43.1,29.97,WNW,294,9.0,15.0,67,0.00,,,0.03,116,Wunderground v.1.15,2013-06-22 00:58:00,
2013-06-21 19:04:00,53.3,42.6,29.97,NW,308,8.0,9.0,67,0.00,,,0.03,174,Wunderground v.1.15,2013-06-22 01:04:00,
2013-06-21 19:10:00,53.2,43.3,29.97,WNW,297,6.0,6.0,69,0.00,,,0.03,200,Wunderground v.1.15,2013-06-22 01:10:00,
2013-06-21 19:16:00,53.2,42.9,29.97,NNW,347,5.0,7.0,68,0.00,,,0.03,139,Wunderground v.1.15,2013-06-22 01:16:00,
2013-06-21 19:22:00,53.0,43.5,29.96,NNW,347,5.0,5.0,70,0.00,,,0.03,137,Wunderground v.1.15,2013-06-22 01:22:00,
2013-06-21 19:28:00,52.7,43.6,29.96,North,350,4.0,5.0,71,0.00,,,0.03,220,Wunderground v.1.15,2013-06-22 01:28:00,
2013-06-21 19:34:00,52.7,43.2,29.96,NNW,337,3.0,5.0,70,0.00,,,0.03,255,Wunderground v.1.15,2013-06-22 01:34:00,
2013-06-21 19:42:00,53.0,42.7,29.96,NW,324,3.0,3.0,68,0.00,,,0.03,264,Wunderground v.1.15,2013-06-22 01:42:00,
2013-06-21 19:48:00,53.3,42.6,29.96,NW,311,3.0,4.0,67,0.00,,,0.03,107,Wunderground v.1.15,2013-06-22 01:48:00,
2013-06-21 19:56:00,53.7,42.6,29.97,NW,304,2.0,4.0,66,0.00,,,0.03,88,Wunderground v.1.15,2013-06-22 01:56:00,
2013-06-21 20:02:00,53.7,43.0,29.97,WNW,302,2.0,2.0,67,0.00,,,0.03,67,Wunderground v.1.15,2013-06-22 02:02:00,
2013-06-21 20:08:00,53.6,42.5,29.97,WNW,302,0.0,2.0,66,0.00,,,0.03,51,Wunderground v.1.15,2013-06-22 02:08:00,
2013-06-21 20:14:00,53.4,42.7,29.97,WNW,302,0.0,0.0,67,0.00,,,0.03,40,Wunderground v.1.15,2013-06-22 02:14:00,
2013-06-21 20:20:00,53.2,42.9,29.96,WNW,302,0.0,0.0,68,0.00,,,0.03,37,Wunderground v.1.15,2013-06-22 02:20:00,
2013-06-21 20:28:00,52.8,42.5,29.97,WNW,302,0.0,0.0,68,0.00,,,0.03,35,Wunderground v.1.15,2013-06-22 02:28:00,
2013-06-21 20:34:00,52.5,42.2,29.97,WNW,302,0.0,0.0,68,0.00,,,0.03,33,Wunderground v.1.15,2013-06-22 02:34:00,
2013-06-21 20:40:00,52.2,42.7,29.96,WNW,302,0.0,0.0,70,0.00,,,0.03,30,Wunderground v.1.15,2013-06-22 02:40:00,
2013-06-21 20:46:00,51.9,42.4,29.97,WNW,302,0.0,0.0,70,0.00,,,0.03,21,Wunderground v.1.15,2013-06-22 02:46:00,
2013-06-21 20:52:00,51.8,42.3,29.96,WNW,302,0.0,0.0,70,0.00,,,0.03,18,Wunderground v.1.15,2013-06-22 02:52:00,
2013-06-21 20:58:00,51.6,42.5,29.96,WNW,302,0.0,0.0,71,0.00,,,0.03,11,Wunderground v.1.15,2013-06-22 02:58:00,
2013-06-21 21:04:00,51.5,42.0,29.96,WNW,302,0.0,0.0,70,0.00,,,0.03,9,Wunderground v.1.15,2013-06-22 03:04:00,
2013-06-21 21:10:00,51.4,41.9,29.96,WNW,302,0.0,0.0,70,0.00,,,0.03,9,Wunderground v.1.15,2013-06-22 03:10:00,
2013-06-21 21:16:00,51.3,42.2,29.96,WNW,302,0.0,0.0,71,0.00,,,0.03,5,Wunderground v.1.15,2013-06-22 03:16:00,
2013-06-21 21:22:00,51.2,42.1,29.95,WNW,302,0.0,0.0,71,0.00,,,0.03,0,Wunderground v.1.15,2013-06-22 03:22:00,
2013-06-21 21:28:00,50.9,42.2,29.96,WNW,302,0.0,0.0,72,0.00,,,0.03,0,Wunderground v.1.15,2013-06-22 03:28:00,
2013-06-21 21:36:00,50.7,42.0,29.95,WNW,302,0.0,0.0,72,0.00,,,0.03,0,Wunderground v.1.15,2013-06-22 03:36:00,
2013-06-21 21:42:00,50.3,41.3,29.96,North,5,0.0,3.0,71,0.00,,,0.03,0,Wunderground v.1.15,2013-06-22 03:42:00,
2013-06-21 21:48:00,49.9,41.6,29.96,North,9,1.0,3.0,73,0.00,,,0.03,0,Wunderground v.1.15,2013-06-22 03:48:00,
2013-06-21 21:54:00,49.4,41.5,29.96,North,10,1.0,1.0,74,0.00,,,0.03,0,Wunderground v.1.15,2013-06-22 03:54:00,
2013-06-21 22:00:00,48.8,41.2,29.97,NE,34,1.0,1.0,75,0.00,,,0.03,0,Wunderground v.1.15,2013-06-22 04:00:00,
2013-06-21 22:02:00,48.7,41.1,29.96,NE,34,1.0,1.0,75,0.00,,,0.03,0,Wunderground v.1.15,2013-06-22 04:02:00,
2013-06-21 22:04:00,48.5,40.9,29.97,NE,34,1.0,1.0,75,0.00,,,0.03,0,Wunderground v.1.15,2013-06-22 04:04:00,
2013-06-21 22:08:00,48.3,40.7,29.97,NE,34,1.0,1.0,75,0.00,,,0.03,0,Wunderground v.1.15,2013-06-22 04:08:00,
2013-06-21 22:10:00,48.2,40.6,29.97,NE,34,0.0,0.0,75,0.00,,,0.03,0,Wunderground v.1.15,2013-06-22 04:10:00,
2013-06-21 22:16:00,47.9,40.0,29.97,NE,34,0.0,0.0,74,0.00,,,0.03,0,Wunderground v.1.15,2013-06-22 04:16:00,
2013-06-21 22:22:00,47.7,40.2,29.97,NE,34,0.0,0.0,75,0.00,,,0.03,0,Wunderground v.1.15,2013-06-22 04:22:00,
2013-06-21 22:28:00,47.5,40.0,29.97,NE,34,0.0,0.0,75,0.00,,,0.03,0,Wunderground v.1.15,2013-06-22 04:28:00,
2013-06-21 22:34:00,47.3,40.5,29.97,NE,34,0.0,0.0,77,0.00,,,0.03,0,Wunderground v.1.15,2013-06-22 04:34:00,
2013-06-21 22:40:00,47.0,39.1,29.97,NE,34,0.0,0.0,74,0.00,,,0.03,0,Wunderground v.1.15,2013-06-22 04:40:00,
2013-06-21 22:46:00,46.8,39.3,29.97,NE,34,0.0,0.0,75,0.00,,,0.03,0,Wunderground v.1.15,2013-06-22 04:46:00,
2013-06-21 22:52:00,46.5,39.3,29.98,NE,34,0.0,0.0,76,0.00,,,0.03,0,Wunderground v.1.15,2013-06-22 04:52:00,
2013-06-21 22:58:00,46.2,39.1,29.98,NE,34,0.0,0.0,76,0.00,,,0.03,0,Wunderground v.1.15,2013-06-22 04:58:00,
2013-06-21 23:04:00,45.9,38.8,29.98,NE,35,0.0,0.0,76,0.00,,,0.03,0,Wunderground v.1.15,2013-06-22 05:04:00,
2013-06-21 23:12:00,45.5,39.0,29.97,NE,36,0.0,0.0,78,0.00,,,0.03,0,Wunderground v.1.15,2013-06-22 05:12:00,
2013-06-21 23:18:00,45.2,39.1,29.98,NE,38,0.0,0.0,79,0.00,,,0.03,0,Wunderground v.1.15,2013-06-22 05:18:00,
2013-06-21 23:24:00,45.1,39.6,29.98,NE,38,0.0,0.0,81,0.00,,,0.03,0,Wunderground v.1.15,2013-06-22 05:24:00,
2013-06-21 23:30:00,45.0,39.5,29.98,NE,38,0.0,0.0,81,0.00,,,0.03,0,Wunderground v.1.15,2013-06-22 05:30:00,
2013-06-21 23:36:00,45.1,39.6,29.98,NE,49,0.0,0.0,81,0.00,,,0.03,0,Wunderground v.1.15,2013-06-22 05:36:00,
2013-06-21 23:44:00,45.2,39.4,29.98,East,92,2.0,3.0,80,0.00,,,0.03,0,Wunderground v.1.15,2013-06-22 05:44:00,
2013-06-21 23:50:00,45.2,39.4,29.98,East,94,2.0,2.0,80,0.00,,,0.03,0,Wunderground v.1.15,2013-06-22 05:50:00,
2013-06-21 23:56:00,45.3,39.2,29.98,East,94,1.0,2.0,79,0.00,,,0.03,0,Wunderground v.1.15,2013-06-22 05:56:00,